Year,Month,Day,Hour,Minute,Value (Times are PST for temperature in C)
2010,07,08,00,00,23.60
2010,07,08,00,01,23.60
2010,07,08,00,02,23.50
2010,07,08,00,03,23.40
2010,07,08,00,04,23.40
2010,07,08,00,05,23.30
2010,07,08,00,06,23.30
2010,07,08,00,07,23.20
2010,07,08,00,08,23.20
2010,07,08,00,09,23.20
2010,07,08,00,10,23.30
2010,07,08,00,11,23.30
2010,07,08,00,12,23.30
2010,07,08,00,13,23.30
2010,07,08,00,14,23.30
2010,07,08,00,15,23.20
2010,07,08,00,16,23.20
2010,07,08,00,17,23.10
2010,07,08,00,18,23.00
2010,07,08,00,19,22.90
2010,07,08,00,20,22.90
2010,07,08,00,21,22.80
2010,07,08,00,22,22.70
2010,07,08,00,23,22.60
2010,07,08,00,24,22.60
2010,07,08,00,25,22.50
2010,07,08,00,26,22.50
2010,07,08,00,27,22.40
2010,07,08,00,28,22.30
2010,07,08,00,29,22.20
2010,07,08,00,30,22.20
2010,07,08,00,31,22.10
2010,07,08,00,32,22.00
2010,07,08,00,33,22.00
2010,07,08,00,34,21.90
2010,07,08,00,35,21.90
2010,07,08,00,36,21.80
2010,07,08,00,37,21.70
2010,07,08,00,38,21.70
2010,07,08,00,39,21.60
2010,07,08,00,40,21.50
2010,07,08,00,41,21.40
2010,07,08,00,42,21.20
2010,07,08,00,43,21.10
2010,07,08,00,44,21.00
2010,07,08,00,45,20.90
2010,07,08,00,46,20.80
2010,07,08,00,47,20.70
2010,07,08,00,48,20.70
2010,07,08,00,49,20.60
2010,07,08,00,50,20.50
2010,07,08,00,51,20.50
2010,07,08,00,52,20.30
2010,07,08,00,53,20.20
2010,07,08,00,54,20.20
2010,07,08,00,55,20.10
2010,07,08,00,56,20.00
2010,07,08,00,57,19.90
2010,07,08,00,58,19.90
2010,07,08,00,59,19.80
2010,07,08,01,00,19.70
2010,07,08,01,01,19.70
2010,07,08,01,02,19.70
2010,07,08,01,03,19.60
2010,07,08,01,04,19.60
2010,07,08,01,05,19.60
2010,07,08,01,06,19.60
2010,07,08,01,07,19.60
2010,07,08,01,08,19.50
2010,07,08,01,09,19.50
2010,07,08,01,10,19.50
2010,07,08,01,11,19.40
2010,07,08,01,12,19.40
2010,07,08,01,13,19.30
2010,07,08,01,14,19.30
2010,07,08,01,15,19.20
2010,07,08,01,16,19.20
2010,07,08,01,17,19.10
2010,07,08,01,18,19.10
2010,07,08,01,19,19.10
2010,07,08,01,20,19.10
2010,07,08,01,21,19.20
2010,07,08,01,22,19.20
2010,07,08,01,23,19.20
2010,07,08,01,24,19.20
2010,07,08,01,25,19.20
2010,07,08,01,26,19.10
2010,07,08,01,27,19.10
2010,07,08,01,28,19.10
2010,07,08,01,29,19.10
2010,07,08,01,30,19.10
2010,07,08,01,31,19.10
2010,07,08,01,32,19.00
2010,07,08,01,33,18.90
2010,07,08,01,34,18.90
2010,07,08,01,35,18.90
2010,07,08,01,36,18.80
2010,07,08,01,37,18.80
2010,07,08,01,38,18.70
2010,07,08,01,39,18.70
2010,07,08,01,40,18.70
2010,07,08,01,41,18.70
2010,07,08,01,42,18.80
2010,07,08,01,43,18.80
2010,07,08,01,44,18.80
2010,07,08,01,45,18.90
2010,07,08,01,46,18.90
2010,07,08,01,47,18.90
2010,07,08,01,48,19.00
2010,07,08,01,49,19.10
2010,07,08,01,50,19.10
2010,07,08,01,51,19.10
2010,07,08,01,52,19.10
2010,07,08,01,53,19.10
2010,07,08,01,54,19.10
2010,07,08,01,55,18.90
2010,07,08,01,56,18.90
2010,07,08,01,57,18.70
2010,07,08,01,58,18.60
2010,07,08,01,59,18.40
2010,07,08,02,00,18.20
2010,07,08,02,01,18.20
2010,07,08,02,02,18.10
2010,07,08,02,03,18.20
2010,07,08,02,04,18.40
2010,07,08,02,05,18.50
2010,07,08,02,06,18.60
2010,07,08,02,07,18.70
2010,07,08,02,08,18.70
2010,07,08,02,09,18.80
2010,07,08,02,10,18.90
2010,07,08,02,11,19.00
2010,07,08,02,12,19.10
2010,07,08,02,13,19.10
2010,07,08,02,14,19.20
2010,07,08,02,15,19.30
2010,07,08,02,16,19.30
2010,07,08,02,17,19.40
2010,07,08,02,18,19.50
2010,07,08,02,19,19.60
2010,07,08,02,20,19.70
2010,07,08,02,21,19.80
2010,07,08,02,22,19.80
2010,07,08,02,23,19.90
2010,07,08,02,24,19.90
2010,07,08,02,25,19.90
2010,07,08,02,26,19.90
2010,07,08,02,27,20.00
2010,07,08,02,28,20.10
2010,07,08,02,29,20.10
2010,07,08,02,30,20.20
2010,07,08,02,31,20.20
2010,07,08,02,32,20.20
2010,07,08,02,33,20.30
2010,07,08,02,34,20.40
2010,07,08,02,35,20.40
2010,07,08,02,36,20.50
2010,07,08,02,37,20.50
2010,07,08,02,38,20.60
2010,07,08,02,39,20.60
2010,07,08,02,40,20.70
2010,07,08,02,41,20.70
2010,07,08,02,42,20.70
2010,07,08,02,43,20.60
2010,07,08,02,44,20.60
2010,07,08,02,45,20.60
2010,07,08,02,46,20.50
2010,07,08,02,47,20.50
2010,07,08,02,48,20.50
2010,07,08,02,49,20.40
2010,07,08,02,50,20.50
2010,07,08,02,51,20.50
2010,07,08,02,52,20.50
2010,07,08,02,53,20.50
2010,07,08,02,54,20.60
2010,07,08,02,55,20.60
2010,07,08,02,56,20.50
2010,07,08,02,57,20.50
2010,07,08,02,58,20.50
2010,07,08,02,59,20.40
2010,07,08,03,00,20.30
2010,07,08,03,01,20.20
2010,07,08,03,02,20.10
2010,07,08,03,03,20.00
2010,07,08,03,04,19.90
2010,07,08,03,05,19.80
2010,07,08,03,06,19.80
2010,07,08,03,07,19.60
2010,07,08,03,08,19.50
2010,07,08,03,09,19.40
2010,07,08,03,10,19.30
2010,07,08,03,11,19.20
2010,07,08,03,12,19.10
2010,07,08,03,13,19.20
2010,07,08,03,14,19.20
2010,07,08,03,15,19.30
2010,07,08,03,16,19.50
2010,07,08,03,17,19.60
2010,07,08,03,18,19.80
2010,07,08,03,19,20.00
2010,07,08,03,20,20.10
2010,07,08,03,21,20.20
2010,07,08,03,22,20.30
2010,07,08,03,23,20.40
2010,07,08,03,24,20.50
2010,07,08,03,25,20.60
2010,07,08,03,26,20.60
2010,07,08,03,27,20.70
2010,07,08,03,28,20.70
2010,07,08,03,29,20.80
2010,07,08,03,30,20.80
2010,07,08,03,31,20.80
2010,07,08,03,32,20.80
2010,07,08,03,33,20.80
2010,07,08,03,34,20.80
2010,07,08,03,35,20.80
2010,07,08,03,36,20.70
2010,07,08,03,37,20.60
2010,07,08,03,38,20.40
2010,07,08,03,39,20.30
2010,07,08,03,40,20.20
2010,07,08,03,41,20.10
2010,07,08,03,42,20.00
2010,07,08,03,43,19.90
2010,07,08,03,44,19.80
2010,07,08,03,45,19.80
2010,07,08,03,46,19.80
2010,07,08,03,47,19.80
2010,07,08,03,48,19.70
2010,07,08,03,49,19.70
2010,07,08,03,50,19.70
2010,07,08,03,51,19.80
2010,07,08,03,52,19.80
2010,07,08,03,53,19.90
2010,07,08,03,54,19.90
2010,07,08,03,55,19.90
2010,07,08,03,56,19.80
2010,07,08,03,57,19.70
2010,07,08,03,58,19.60
2010,07,08,03,59,19.50
2010,07,08,04,00,19.40
2010,07,08,04,01,19.30
2010,07,08,04,02,19.20
2010,07,08,04,03,19.10
2010,07,08,04,04,19.10
2010,07,08,04,05,19.00
2010,07,08,04,06,18.90
2010,07,08,04,07,18.70
2010,07,08,04,08,18.60
2010,07,08,04,09,18.50
2010,07,08,04,10,18.40
2010,07,08,04,11,18.30
2010,07,08,04,12,18.20
2010,07,08,04,13,18.20
2010,07,08,04,14,18.10
2010,07,08,04,15,18.20
2010,07,08,04,16,18.10
2010,07,08,04,17,18.10
2010,07,08,04,18,18.10
2010,07,08,04,19,18.00
2010,07,08,04,20,17.90
2010,07,08,04,21,17.90
2010,07,08,04,22,17.80
2010,07,08,04,23,17.80
2010,07,08,04,24,17.70
2010,07,08,04,25,17.60
2010,07,08,04,26,17.50
2010,07,08,04,27,17.50
2010,07,08,04,28,17.50
2010,07,08,04,29,17.50
2010,07,08,04,30,17.40
2010,07,08,04,31,17.30
2010,07,08,04,32,17.30
2010,07,08,04,33,17.30
2010,07,08,04,34,17.30
2010,07,08,04,35,17.30
2010,07,08,04,36,17.20
2010,07,08,04,37,17.20
2010,07,08,04,38,17.20
2010,07,08,04,39,17.20
2010,07,08,04,40,17.20
2010,07,08,04,41,17.20
2010,07,08,04,42,17.20
2010,07,08,04,43,17.20
2010,07,08,04,44,17.20
2010,07,08,04,45,17.30
2010,07,08,04,46,17.30
2010,07,08,04,47,17.40
2010,07,08,04,48,17.50
2010,07,08,04,49,17.60
2010,07,08,04,50,17.60
2010,07,08,04,51,17.70
2010,07,08,04,52,17.70
2010,07,08,04,53,17.70
2010,07,08,04,54,17.80
2010,07,08,04,55,17.90
2010,07,08,04,56,18.00
2010,07,08,04,57,18.10
2010,07,08,04,58,18.20
2010,07,08,04,59,18.20
2010,07,08,05,00,18.20
2010,07,08,05,01,18.20
2010,07,08,05,02,18.20
2010,07,08,05,03,18.10
2010,07,08,05,04,18.10
2010,07,08,05,05,17.90
2010,07,08,05,06,17.90
2010,07,08,05,07,17.90
2010,07,08,05,08,17.80
2010,07,08,05,09,17.70
2010,07,08,05,10,17.70
2010,07,08,05,11,17.60
2010,07,08,05,12,17.50
2010,07,08,05,13,17.40
2010,07,08,05,14,17.40
2010,07,08,05,15,17.40
2010,07,08,05,16,17.40
2010,07,08,05,17,17.40
2010,07,08,05,18,17.30
2010,07,08,05,19,17.40
2010,07,08,05,20,17.60
2010,07,08,05,21,17.80
2010,07,08,05,22,18.00
2010,07,08,05,23,18.10
2010,07,08,05,24,18.20
2010,07,08,05,25,18.20
2010,07,08,05,26,18.20
2010,07,08,05,27,18.20
2010,07,08,05,28,18.20
2010,07,08,05,29,18.20
2010,07,08,05,30,18.20
2010,07,08,05,31,18.10
2010,07,08,05,32,18.10
2010,07,08,05,33,18.10
2010,07,08,05,34,18.10
2010,07,08,05,35,18.10
2010,07,08,05,36,18.10
2010,07,08,05,37,18.10
2010,07,08,05,38,18.10
2010,07,08,05,39,18.10
2010,07,08,05,40,18.20
2010,07,08,05,41,18.20
2010,07,08,05,42,18.20
2010,07,08,05,43,18.20
2010,07,08,05,44,18.20
2010,07,08,05,45,18.20
2010,07,08,05,46,18.20
2010,07,08,05,47,18.20
2010,07,08,05,48,18.20
2010,07,08,05,49,18.10
2010,07,08,05,50,18.10
2010,07,08,05,51,18.00
2010,07,08,05,52,17.90
2010,07,08,05,53,18.00
2010,07,08,05,54,18.20
2010,07,08,05,55,18.20
2010,07,08,05,56,18.30
2010,07,08,05,57,18.40
2010,07,08,05,58,18.50
2010,07,08,05,59,18.60
2010,07,08,06,00,18.60
2010,07,08,06,01,18.60
2010,07,08,06,02,18.70
2010,07,08,06,03,18.80
2010,07,08,06,04,18.80
2010,07,08,06,05,18.90
2010,07,08,06,06,18.90
2010,07,08,06,07,18.90
2010,07,08,06,08,18.90
2010,07,08,06,09,18.90
2010,07,08,06,10,19.00
2010,07,08,06,11,19.10
2010,07,08,06,12,19.10
2010,07,08,06,13,19.10
2010,07,08,06,14,19.10
2010,07,08,06,15,19.10
2010,07,08,06,16,19.10
2010,07,08,06,17,19.20
2010,07,08,06,18,19.10
2010,07,08,06,19,19.10
2010,07,08,06,20,19.10
2010,07,08,06,21,19.10
2010,07,08,06,22,19.10
2010,07,08,06,23,19.00
2010,07,08,06,24,18.90
2010,07,08,06,25,18.90
2010,07,08,06,26,18.90
2010,07,08,06,27,18.90
2010,07,08,06,28,18.90
2010,07,08,06,29,18.90
2010,07,08,06,30,18.80
2010,07,08,06,31,18.80
2010,07,08,06,32,18.80
2010,07,08,06,33,18.70
2010,07,08,06,34,18.70
2010,07,08,06,35,18.70
2010,07,08,06,36,18.60
2010,07,08,06,37,18.60
2010,07,08,06,38,18.60
2010,07,08,06,39,18.70
2010,07,08,06,40,18.70
2010,07,08,06,41,18.80
2010,07,08,06,42,18.90
2010,07,08,06,43,18.90
2010,07,08,06,44,19.00
2010,07,08,06,45,19.10
2010,07,08,06,46,19.20
2010,07,08,06,47,19.30
2010,07,08,06,48,19.40
2010,07,08,06,49,19.50
2010,07,08,06,50,19.60
2010,07,08,06,51,19.70
2010,07,08,06,52,19.80
2010,07,08,06,53,19.90
2010,07,08,06,54,20.00
2010,07,08,06,55,20.10
2010,07,08,06,56,20.20
2010,07,08,06,57,20.30
2010,07,08,06,58,20.40
2010,07,08,06,59,20.50
2010,07,08,07,00,20.60
2010,07,08,07,01,20.60
2010,07,08,07,02,20.70
2010,07,08,07,03,20.80
2010,07,08,07,04,20.90
2010,07,08,07,05,21.00
2010,07,08,07,06,21.00
2010,07,08,07,07,21.10
2010,07,08,07,08,21.20
2010,07,08,07,09,21.30
2010,07,08,07,10,21.30
2010,07,08,07,11,21.40
2010,07,08,07,12,21.50
2010,07,08,07,13,21.60
2010,07,08,07,14,21.60
2010,07,08,07,15,21.70
2010,07,08,07,16,21.70
2010,07,08,07,17,21.80
2010,07,08,07,18,21.90
2010,07,08,07,19,22.00
2010,07,08,07,20,22.10
2010,07,08,07,21,22.10
2010,07,08,07,22,22.20
2010,07,08,07,23,22.20
2010,07,08,07,24,22.30
2010,07,08,07,25,22.30
2010,07,08,07,26,22.40
2010,07,08,07,27,22.50
2010,07,08,07,28,22.50
2010,07,08,07,29,22.60
2010,07,08,07,30,22.70
2010,07,08,07,31,22.70
2010,07,08,07,32,22.80
2010,07,08,07,33,22.80
2010,07,08,07,34,22.90
2010,07,08,07,35,22.90
2010,07,08,07,36,22.90
2010,07,08,07,37,23.00
2010,07,08,07,38,23.10
2010,07,08,07,39,23.10
2010,07,08,07,40,23.10
2010,07,08,07,41,23.20
2010,07,08,07,42,23.20
2010,07,08,07,43,23.20
2010,07,08,07,44,23.20
2010,07,08,07,45,23.20
2010,07,08,07,46,23.20
2010,07,08,07,47,23.20
2010,07,08,07,48,23.20
2010,07,08,07,49,23.20
2010,07,08,07,50,23.20
2010,07,08,07,51,23.20
2010,07,08,07,52,23.10
2010,07,08,07,53,23.10
2010,07,08,07,54,23.10
2010,07,08,07,55,23.10
2010,07,08,07,56,23.10
2010,07,08,07,57,23.10
2010,07,08,07,58,23.10
2010,07,08,07,59,23.20
2010,07,08,08,00,23.20
2010,07,08,08,01,23.20
2010,07,08,08,02,23.30
2010,07,08,08,03,23.30
2010,07,08,08,04,23.30
2010,07,08,08,05,23.30
2010,07,08,08,06,23.30
2010,07,08,08,07,23.30
2010,07,08,08,08,23.30
2010,07,08,08,09,23.30
2010,07,08,08,10,23.40
2010,07,08,08,11,23.40
2010,07,08,08,12,23.40
2010,07,08,08,13,23.40
2010,07,08,08,14,23.60
2010,07,08,08,15,23.60
2010,07,08,08,16,23.60
2010,07,08,08,17,23.70
2010,07,08,08,18,23.70
2010,07,08,08,19,23.70
2010,07,08,08,20,23.70
2010,07,08,08,21,23.70
2010,07,08,08,22,23.80
2010,07,08,08,23,23.80
2010,07,08,08,24,23.90
2010,07,08,08,25,23.90
2010,07,08,08,26,24.00
2010,07,08,08,27,24.10
2010,07,08,08,28,24.10
2010,07,08,08,29,24.10
2010,07,08,08,30,24.20
2010,07,08,08,31,24.30
2010,07,08,08,32,24.30
2010,07,08,08,33,24.30
2010,07,08,08,34,24.30
2010,07,08,08,35,24.30
2010,07,08,08,36,24.40
2010,07,08,08,37,24.40
2010,07,08,08,38,24.40
2010,07,08,08,39,24.40
2010,07,08,08,40,24.40
2010,07,08,08,41,24.40
2010,07,08,08,42,24.40
2010,07,08,08,43,24.50
2010,07,08,08,44,24.50
2010,07,08,08,45,24.50
2010,07,08,08,46,24.60
2010,07,08,08,47,24.60
2010,07,08,08,48,24.70
2010,07,08,08,49,24.70
2010,07,08,08,50,24.70
2010,07,08,08,51,24.70
2010,07,08,08,52,24.80
2010,07,08,08,53,24.80
2010,07,08,08,54,24.80
2010,07,08,08,55,24.80
2010,07,08,08,56,24.90
2010,07,08,08,57,24.90
2010,07,08,08,58,24.90
2010,07,08,08,59,24.90
2010,07,08,09,00,24.90
2010,07,08,09,01,24.90
2010,07,08,09,02,25.00
2010,07,08,09,03,25.00
2010,07,08,09,04,25.00
2010,07,08,09,05,25.10
2010,07,08,09,06,25.10
2010,07,08,09,07,25.20
2010,07,08,09,08,25.20
2010,07,08,09,09,25.30
2010,07,08,09,10,25.40
2010,07,08,09,11,25.40
2010,07,08,09,12,25.40
2010,07,08,09,13,25.50
2010,07,08,09,14,25.50
2010,07,08,09,15,25.50
2010,07,08,09,16,25.50
2010,07,08,09,17,25.50
2010,07,08,09,18,25.50
2010,07,08,09,19,25.50
2010,07,08,09,20,25.60
2010,07,08,09,21,25.60
2010,07,08,09,22,25.50
2010,07,08,09,23,25.50
2010,07,08,09,24,25.50
2010,07,08,09,25,25.50
2010,07,08,09,26,25.50
2010,07,08,09,27,25.50
2010,07,08,09,28,25.50
2010,07,08,09,29,25.50
2010,07,08,09,30,25.50
2010,07,08,09,31,25.50
2010,07,08,09,32,25.50
2010,07,08,09,33,25.50
2010,07,08,09,34,25.50
2010,07,08,09,35,25.50
2010,07,08,09,36,25.50
2010,07,08,09,37,25.50
2010,07,08,09,38,25.50
2010,07,08,09,39,25.60
2010,07,08,09,40,25.60
2010,07,08,09,41,25.60
2010,07,08,09,42,25.60
2010,07,08,09,43,25.60
2010,07,08,09,44,25.70
2010,07,08,09,45,25.70
2010,07,08,09,46,25.80
2010,07,08,09,47,25.80
2010,07,08,09,48,25.90
2010,07,08,09,49,25.90
2010,07,08,09,50,26.00
2010,07,08,09,51,25.90
2010,07,08,09,52,25.90
2010,07,08,09,53,25.90
2010,07,08,09,54,26.00
2010,07,08,09,55,26.00
2010,07,08,09,56,26.10
2010,07,08,09,57,26.10
2010,07,08,09,58,26.10
2010,07,08,09,59,26.20
2010,07,08,10,00,26.20
2010,07,08,10,01,26.30
2010,07,08,10,02,26.30
2010,07,08,10,03,26.30
2010,07,08,10,04,26.20
2010,07,08,10,05,26.20
2010,07,08,10,06,26.20
2010,07,08,10,07,26.20
2010,07,08,10,08,26.20
2010,07,08,10,09,26.20
2010,07,08,10,10,26.20
2010,07,08,10,11,26.20
2010,07,08,10,12,26.20
2010,07,08,10,13,26.20
2010,07,08,10,14,26.20
2010,07,08,10,15,26.20
2010,07,08,10,16,26.20
2010,07,08,10,17,26.20
2010,07,08,10,18,26.30
2010,07,08,10,19,26.30
2010,07,08,10,20,26.30
2010,07,08,10,21,26.30
2010,07,08,10,22,26.30
2010,07,08,10,23,26.30
2010,07,08,10,24,26.20
2010,07,08,10,25,26.30
2010,07,08,10,26,26.30
2010,07,08,10,27,26.40
2010,07,08,10,28,26.40
2010,07,08,10,29,26.50
2010,07,08,10,30,26.60
2010,07,08,10,31,26.60
2010,07,08,10,32,26.70
2010,07,08,10,33,26.80
2010,07,08,10,34,26.80
2010,07,08,10,35,26.80
2010,07,08,10,36,26.80
2010,07,08,10,37,26.80
2010,07,08,10,38,26.80
2010,07,08,10,39,26.80
2010,07,08,10,40,26.90
2010,07,08,10,41,26.90
2010,07,08,10,42,26.80
2010,07,08,10,43,26.70
2010,07,08,10,44,26.70
2010,07,08,10,45,26.70
2010,07,08,10,46,26.70
2010,07,08,10,47,26.70
2010,07,08,10,48,26.60
2010,07,08,10,49,26.60
2010,07,08,10,50,26.60
2010,07,08,10,51,26.50
2010,07,08,10,52,26.40
2010,07,08,10,53,26.40
2010,07,08,10,54,26.40
2010,07,08,10,55,26.50
2010,07,08,10,56,26.60
2010,07,08,10,57,26.60
2010,07,08,10,58,26.60
2010,07,08,10,59,26.60
2010,07,08,11,00,26.60
2010,07,08,11,01,26.70
2010,07,08,11,02,26.70
2010,07,08,11,03,26.80
2010,07,08,11,04,26.80
2010,07,08,11,05,26.80
2010,07,08,11,06,26.80
2010,07,08,11,07,26.80
2010,07,08,11,08,26.80
2010,07,08,11,09,26.80
2010,07,08,11,10,26.80
2010,07,08,11,11,26.80
2010,07,08,11,12,26.80
2010,07,08,11,13,26.80
2010,07,08,11,14,26.80
2010,07,08,11,15,26.80
2010,07,08,11,16,26.90
2010,07,08,11,17,26.90
2010,07,08,11,18,27.10
2010,07,08,11,19,27.10
2010,07,08,11,20,27.20
2010,07,08,11,21,27.20
2010,07,08,11,22,27.30
2010,07,08,11,23,27.30
2010,07,08,11,24,27.30
2010,07,08,11,25,27.10
2010,07,08,11,26,27.00
2010,07,08,11,27,26.90
2010,07,08,11,28,26.90
2010,07,08,11,29,26.90
2010,07,08,11,30,26.90
2010,07,08,11,31,27.00
2010,07,08,11,32,27.10
2010,07,08,11,33,27.20
2010,07,08,11,34,27.30
2010,07,08,11,35,27.30
2010,07,08,11,36,27.30
2010,07,08,11,37,27.30
2010,07,08,11,38,27.20
2010,07,08,11,39,27.20
2010,07,08,11,40,27.20
2010,07,08,11,41,27.30
2010,07,08,11,42,27.20
2010,07,08,11,43,27.30
2010,07,08,11,44,27.30
2010,07,08,11,45,27.30
2010,07,08,11,46,27.40
2010,07,08,11,47,27.60
2010,07,08,11,48,27.60
2010,07,08,11,49,27.80
2010,07,08,11,50,27.90
2010,07,08,11,51,28.00
2010,07,08,11,52,28.00
2010,07,08,11,53,28.00
2010,07,08,11,54,28.00
2010,07,08,11,55,28.00
2010,07,08,11,56,28.00
2010,07,08,11,57,28.00
2010,07,08,11,58,28.00
2010,07,08,11,59,27.90
2010,07,08,12,00,27.90
2010,07,08,12,01,28.00
2010,07,08,12,02,28.00
2010,07,08,12,03,27.90
2010,07,08,12,04,28.00
2010,07,08,12,05,28.00
2010,07,08,12,06,28.10
2010,07,08,12,07,28.10
2010,07,08,12,08,28.20
2010,07,08,12,09,28.20
2010,07,08,12,10,28.20
2010,07,08,12,11,28.20
2010,07,08,12,12,28.30
2010,07,08,12,13,28.40
2010,07,08,12,14,28.40
2010,07,08,12,15,28.40
2010,07,08,12,16,28.30
2010,07,08,12,17,28.30
2010,07,08,12,18,28.30
2010,07,08,12,19,28.40
2010,07,08,12,20,28.50
2010,07,08,12,21,28.60
2010,07,08,12,22,28.60
2010,07,08,12,23,28.60
2010,07,08,12,24,28.60
2010,07,08,12,25,28.70
2010,07,08,12,26,28.70
2010,07,08,12,27,28.80
2010,07,08,12,28,28.80
2010,07,08,12,29,28.90
2010,07,08,12,30,28.90
2010,07,08,12,31,28.90
2010,07,08,12,32,28.90
2010,07,08,12,33,28.90
2010,07,08,12,34,28.90
2010,07,08,12,35,28.90
2010,07,08,12,36,28.90
2010,07,08,12,37,28.90
2010,07,08,12,38,29.00
2010,07,08,12,39,29.10
2010,07,08,12,40,29.10
2010,07,08,12,41,29.10
2010,07,08,12,42,29.10
2010,07,08,12,43,29.00
2010,07,08,12,44,28.90
2010,07,08,12,45,28.90
2010,07,08,12,46,28.90
2010,07,08,12,47,29.00
2010,07,08,12,48,29.10
2010,07,08,12,49,29.10
2010,07,08,12,50,29.10
2010,07,08,12,51,29.10
2010,07,08,12,52,29.10
2010,07,08,12,53,29.10
2010,07,08,12,54,29.10
2010,07,08,12,55,28.90
2010,07,08,12,56,28.90
2010,07,08,12,57,29.00
2010,07,08,12,58,29.10
2010,07,08,12,59,29.20
2010,07,08,13,00,29.30
2010,07,08,13,01,29.40
2010,07,08,13,02,29.60
2010,07,08,13,03,29.70
2010,07,08,13,04,29.80
2010,07,08,13,05,29.90
2010,07,08,13,06,29.90
2010,07,08,13,07,29.90
2010,07,08,13,08,29.80
2010,07,08,13,09,29.70
2010,07,08,13,10,29.70
2010,07,08,13,11,29.70
2010,07,08,13,12,29.80
2010,07,08,13,13,29.80
2010,07,08,13,14,29.70
2010,07,08,13,15,29.70
2010,07,08,13,16,29.70
2010,07,08,13,17,29.70
2010,07,08,13,18,29.70
2010,07,08,13,19,29.70
2010,07,08,13,20,29.70
2010,07,08,13,21,29.70
2010,07,08,13,22,29.70
2010,07,08,13,23,29.80
2010,07,08,13,24,29.80
2010,07,08,13,25,29.80
2010,07,08,13,26,29.70
2010,07,08,13,27,29.70
2010,07,08,13,28,29.80
2010,07,08,13,29,29.80
2010,07,08,13,30,29.80
2010,07,08,13,31,29.80
2010,07,08,13,32,29.80
2010,07,08,13,33,29.80
2010,07,08,13,34,29.80
2010,07,08,13,35,29.80
2010,07,08,13,36,29.80
2010,07,08,13,37,29.80
2010,07,08,13,38,29.90
2010,07,08,13,39,29.90
2010,07,08,13,40,29.90
2010,07,08,13,41,29.80
2010,07,08,13,42,29.80
2010,07,08,13,43,29.70
2010,07,08,13,44,29.70
2010,07,08,13,45,29.80
2010,07,08,13,46,29.80
2010,07,08,13,47,29.80
2010,07,08,13,48,29.90
2010,07,08,13,49,29.90
2010,07,08,13,50,30.00
2010,07,08,13,51,30.10
2010,07,08,13,52,30.10
2010,07,08,13,53,30.10
2010,07,08,13,54,30.10
2010,07,08,13,55,30.10
2010,07,08,13,56,30.10
2010,07,08,13,57,30.20
2010,07,08,13,58,30.20
2010,07,08,13,59,30.10
2010,07,08,14,00,30.10
2010,07,08,14,01,30.10
2010,07,08,14,02,30.10
2010,07,08,14,03,30.10
2010,07,08,14,04,30.20
2010,07,08,14,05,30.20
2010,07,08,14,06,30.20
2010,07,08,14,07,30.20
2010,07,08,14,08,30.20
2010,07,08,14,09,30.20
2010,07,08,14,10,30.30
2010,07,08,14,11,30.30
2010,07,08,14,12,30.40
2010,07,08,14,13,30.30
2010,07,08,14,14,30.30
2010,07,08,14,15,30.30
2010,07,08,14,16,30.30
2010,07,08,14,17,30.30
2010,07,08,14,18,30.40
2010,07,08,14,19,30.50
2010,07,08,14,20,30.60
2010,07,08,14,21,30.60
2010,07,08,14,22,30.60
2010,07,08,14,23,30.70
2010,07,08,14,24,30.80
2010,07,08,14,25,30.80
2010,07,08,14,26,30.80
2010,07,08,14,27,30.80
2010,07,08,14,28,30.70
2010,07,08,14,29,30.70
2010,07,08,14,30,30.70
2010,07,08,14,31,30.70
2010,07,08,14,32,30.70
2010,07,08,14,33,30.70
2010,07,08,14,34,30.70
2010,07,08,14,35,30.70
2010,07,08,14,36,30.70
2010,07,08,14,37,30.70
2010,07,08,14,38,30.80
2010,07,08,14,39,30.80
2010,07,08,14,40,30.80
2010,07,08,14,41,30.90
2010,07,08,14,42,30.90
2010,07,08,14,43,30.90
2010,07,08,14,44,30.90
2010,07,08,14,45,30.80
2010,07,08,14,46,30.80
2010,07,08,14,47,30.80
2010,07,08,14,48,30.80
2010,07,08,14,49,30.80
2010,07,08,14,50,30.90
2010,07,08,14,51,30.90
2010,07,08,14,52,31.00
2010,07,08,14,53,31.00
2010,07,08,14,54,31.00
2010,07,08,14,55,31.00
2010,07,08,14,56,31.00
2010,07,08,14,57,31.00
2010,07,08,14,58,31.10
2010,07,08,14,59,31.20
2010,07,08,15,00,31.20
2010,07,08,15,01,31.30
2010,07,08,15,02,31.30
2010,07,08,15,03,31.30
2010,07,08,15,04,31.30
2010,07,08,15,05,31.30
2010,07,08,15,06,31.30
2010,07,08,15,07,31.40
2010,07,08,15,08,31.40
2010,07,08,15,09,31.50
2010,07,08,15,10,31.60
2010,07,08,15,11,31.50
2010,07,08,15,12,31.40
2010,07,08,15,13,31.30
2010,07,08,15,14,31.30
2010,07,08,15,15,31.30
2010,07,08,15,16,31.20
2010,07,08,15,17,31.10
2010,07,08,15,18,31.10
2010,07,08,15,19,31.10
2010,07,08,15,20,31.10
2010,07,08,15,21,31.20
2010,07,08,15,22,31.20
2010,07,08,15,23,31.20
2010,07,08,15,24,31.10
2010,07,08,15,25,31.10
2010,07,08,15,26,31.10
2010,07,08,15,27,31.20
2010,07,08,15,28,31.20
2010,07,08,15,29,31.30
2010,07,08,15,30,31.30
2010,07,08,15,31,31.30
2010,07,08,15,32,31.40
2010,07,08,15,33,31.50
2010,07,08,15,34,31.60
2010,07,08,15,35,31.60
2010,07,08,15,36,31.60
2010,07,08,15,37,31.60
2010,07,08,15,38,31.60
2010,07,08,15,39,31.60
2010,07,08,15,40,31.70
2010,07,08,15,41,31.80
2010,07,08,15,42,31.80
2010,07,08,15,43,31.90
2010,07,08,15,44,31.90
2010,07,08,15,45,31.90
2010,07,08,15,46,31.90
2010,07,08,15,47,31.90
2010,07,08,15,48,32.10
2010,07,08,15,49,32.10
2010,07,08,15,50,32.10
2010,07,08,15,51,32.10
2010,07,08,15,52,32.20
2010,07,08,15,53,32.20
2010,07,08,15,54,32.20
2010,07,08,15,55,32.30
2010,07,08,15,56,32.30
2010,07,08,15,57,32.40
2010,07,08,15,58,32.40
2010,07,08,15,59,32.40
2010,07,08,16,00,32.40
2010,07,08,16,01,32.50
2010,07,08,16,02,32.50
2010,07,08,16,03,32.60
2010,07,08,16,04,32.70
2010,07,08,16,05,32.80
2010,07,08,16,06,32.90
2010,07,08,16,07,32.90
2010,07,08,16,08,32.90
2010,07,08,16,09,32.90
2010,07,08,16,10,32.90
2010,07,08,16,11,33.00
2010,07,08,16,12,33.00
2010,07,08,16,13,33.00
2010,07,08,16,14,33.00
2010,07,08,16,15,33.10
2010,07,08,16,16,33.10
2010,07,08,16,17,33.10
2010,07,08,16,18,33.00
2010,07,08,16,19,32.90
2010,07,08,16,20,32.70
2010,07,08,16,21,32.60
2010,07,08,16,22,32.50
2010,07,08,16,23,32.50
2010,07,08,16,24,32.50
2010,07,08,16,25,32.60
2010,07,08,16,26,32.60
2010,07,08,16,27,32.80
2010,07,08,16,28,32.80
2010,07,08,16,29,32.80
2010,07,08,16,30,32.80
2010,07,08,16,31,32.80
2010,07,08,16,32,32.90
2010,07,08,16,33,32.90
2010,07,08,16,34,32.90
2010,07,08,16,35,33.00
2010,07,08,16,36,33.00
2010,07,08,16,37,33.00
2010,07,08,16,38,33.00
2010,07,08,16,39,33.00
2010,07,08,16,40,33.00
2010,07,08,16,41,33.00
2010,07,08,16,42,33.10
2010,07,08,16,43,33.10
2010,07,08,16,44,33.10
2010,07,08,16,45,33.10
2010,07,08,16,46,33.20
2010,07,08,16,47,33.20
2010,07,08,16,48,33.40
2010,07,08,16,49,33.40
2010,07,08,16,50,33.40
2010,07,08,16,51,33.40
2010,07,08,16,52,33.30
2010,07,08,16,53,33.20
2010,07,08,16,54,33.10
2010,07,08,16,55,33.10
2010,07,08,16,56,33.00
2010,07,08,16,57,33.00
2010,07,08,16,58,33.00
2010,07,08,16,59,33.00
2010,07,08,17,00,33.10
2010,07,08,17,01,33.30
2010,07,08,17,02,33.50
2010,07,08,17,03,33.50
2010,07,08,17,04,33.60
2010,07,08,17,05,33.60
2010,07,08,17,06,33.60
2010,07,08,17,07,33.50
2010,07,08,17,08,33.50
2010,07,08,17,09,33.40
2010,07,08,17,10,33.40
2010,07,08,17,11,33.40
2010,07,08,17,12,33.50
2010,07,08,17,13,33.50
2010,07,08,17,14,33.40
2010,07,08,17,15,33.40
2010,07,08,17,16,33.30
2010,07,08,17,17,33.20
2010,07,08,17,18,33.20
2010,07,08,17,19,33.20